Weather History for Cheraw, SC

Change the Weather History Date:

Wednesday, May 8, 2013

  Actual Average (KFLO) Record (KFLO)
Temperature  
Mean Temperature 62 °F 69 °F  
Max Temperature 75 °F 81 °F 95 °F (1962)
Min Temperature 50 °F 57 °F 36 °F (1989)
Degree Days  
Heating Degree Days 2 1  
Month to date heating degree days 12  
Since 1 July heating degree days 2512  
Cooling Degree Days 0 5  
Month to date cooling degree days 36  
Year to date cooling degree days 132  
Growing Degree Days 12 (Base 50)    
Moisture  
Dew Point 54 °F    
Average Humidity 81    
Maximum Humidity 100    
Minimum Humidity 41    
Precipitation  
Precipitation 0.00 in 0.09 in 1.02 in (1973)
Month to date precipitation 0.71  
Year to date precipitation 12.81  
Sea Level Pressure  
Sea Level Pressure 29.97 in    
Wind  
Wind Speed - (North)    
Max Wind Speed -    
Max Gust Speed -    
Visibility 9 miles    
Events Rain    
T = Trace of Precipitation, MM = Missing Value Source: NWS Daily Summary

Daily Weather History Graph

Daily Weather History Graph

Search for Another Location

Airport:

Trip Planner

Search our weather history database for the weather conditions in past years. The results will help you decide how hot, cold, wet, or windy it might be!

Date:

Astronomy

May. 08, 2013 Rise Set
Actual Time 6:22 AM EDT 8:10 PM EDT
Civil Twilight 5:55 AM EDT 8:38 PM EDT
Nautical Twilight 5:21 AM EDT 9:11 PM EDT
Astronomical Twilight 4:46 AM EDT 9:46 PM EDT
Moon 5:26 AM EDT (5/8) 7:09 PM EDT (5/8)
Length of Visible Light 14h 43m
Length of Day
13h 48m
Waning Crescent, 2% of the Moon is Illuminated
May 8
Waning Crescent
May 9
New
May 18
First Quarter
May 25
Full
May 31
Last Quarter

Hourly Weather History & Observations

Time (EDT) Temp. Dew Point Humidity Pressure Visibility Wind Dir Wind Speed Gust Speed Precip Events Conditions
12:15 AM 50.0 °F 50.0 °F 100% 29.96 in 9.0 mi North - - N/A   Clear
12:35 AM 50.0 °F 50.0 °F 100% 29.96 in 7.0 mi North - - N/A   Clear
12:55 AM 50.0 °F 50.0 °F 100% 29.96 in 9.0 mi North - - N/A   Clear
1:15 AM 51.8 °F 51.8 °F 100% 29.96 in 9.0 mi North - - N/A   Clear
1:35 AM 51.8 °F 51.8 °F 100% 29.96 in 10.0 mi North - - N/A   Partly Cloudy
1:55 AM 51.8 °F 51.8 °F 100% 29.95 in 10.0 mi North - - N/A   Mostly Cloudy
2:15 AM 51.8 °F 51.8 °F 100% 29.95 in 10.0 mi North - - N/A   Mostly Cloudy
2:35 AM 51.8 °F 51.8 °F 100% 29.94 in 10.0 mi North - - N/A   Mostly Cloudy
2:55 AM 50.0 °F 50.0 °F 100% 29.94 in 8.0 mi North - - N/A   Scattered Clouds
3:15 AM 50.0 °F 50.0 °F 100% 29.93 in 5.0 mi North - - N/A   Mostly Cloudy
3:35 AM 50.0 °F 50.0 °F 100% 29.94 in 5.0 mi North - - N/A   Scattered Clouds
3:55 AM 50.0 °F 50.0 °F 100% 29.94 in 5.0 mi North - - N/A   Mostly Cloudy
4:15 AM 50.0 °F 50.0 °F 100% 29.94 in 5.0 mi North - - N/A   Overcast
4:35 AM 50.0 °F 50.0 °F 100% 29.95 in 8.0 mi North - - N/A   Overcast
4:55 AM 50.0 °F 50.0 °F 100% 29.94 in 9.0 mi North - - N/A   Overcast
5:15 AM 50.0 °F 50.0 °F 100% 29.94 in 9.0 mi North - - N/A   Mostly Cloudy
5:35 AM 50.0 °F 50.0 °F 100% 29.95 in 2.0 mi North - - N/A   Clear
5:55 AM 50.0 °F 50.0 °F 100% 29.94 in 9.0 mi North - - N/A   Clear
6:15 AM 50.0 °F 50.0 °F 100% 29.95 in 9.0 mi North - - N/A   Mostly Cloudy
6:55 AM 50.0 °F 50.0 °F 100% 29.97 in 8.0 mi North - - N/A   Clear
7:15 AM 50.0 °F 50.0 °F 100% 29.97 in 5.0 mi North - - N/A   Clear
7:35 AM 53.6 °F 53.6 °F 100% 29.98 in 10.0 mi North - - N/A   Partly Cloudy
7:55 AM 53.6 °F 53.6 °F 100% 29.98 in 10.0 mi North - - N/A   Partly Cloudy
8:15 AM 57.2 °F 53.6 °F 88% 29.99 in 10.0 mi North - - N/A   Mostly Cloudy
8:35 AM 57.2 °F 53.6 °F 88% 30.00 in 10.0 mi North - - N/A   Mostly Cloudy
8:55 AM 57.2 °F 53.6 °F 88% 30.00 in 10.0 mi North - - N/A   Mostly Cloudy
9:15 AM 57.2 °F 55.4 °F 94% 30.01 in 10.0 mi North - - N/A   Mostly Cloudy
9:35 AM 59.0 °F 55.4 °F 88% 30.01 in 10.0 mi North - - N/A   Scattered Clouds
9:55 AM 60.8 °F 57.2 °F 88% 30.01 in 10.0 mi North - - N/A   Clear
10:15 AM 62.6 °F 57.2 °F 82% 30.01 in 10.0 mi North - - N/A   Clear
10:35 AM 64.4 °F 57.2 °F 77% 30.01 in 10.0 mi North - - N/A   Clear
10:55 AM 66.2 °F 57.2 °F 73% 30.01 in 10.0 mi North - - N/A   Clear
11:15 AM 66.2 °F 57.2 °F 73% 30.01 in 10.0 mi North - - N/A   Clear
11:35 AM 68.0 °F 55.4 °F 64% 30.01 in 10.0 mi North - - N/A   Partly Cloudy
11:55 AM 69.8 °F 55.4 °F 60% 30.00 in 10.0 mi North - - N/A   Clear
12:15 PM 71.6 °F 53.6 °F 53% 30.00 in 10.0 mi North - - N/A   Clear
12:35 PM 71.6 °F 53.6 °F 53% 29.99 in 10.0 mi North - - N/A   Scattered Clouds
12:55 PM 71.6 °F 51.8 °F 50% 29.99 in 10.0 mi North - - N/A   Mostly Cloudy
1:15 PM 71.6 °F 51.8 °F 50% 29.99 in 10.0 mi North - - N/A   Mostly Cloudy
1:35 PM 73.4 °F 53.6 °F 50% 29.98 in 10.0 mi North - - N/A   Mostly Cloudy
1:55 PM 73.4 °F 51.8 °F 47% 29.98 in 10.0 mi North - - N/A   Scattered Clouds
2:15 PM 73.4 °F 51.8 °F 47% 29.97 in 10.0 mi North - - N/A   Mostly Cloudy
2:35 PM 75.2 °F 51.8 °F 44% 29.97 in 10.0 mi North - - N/A   Mostly Cloudy
2:55 PM 73.4 °F 50.0 °F 44% 29.97 in 10.0 mi North - - N/A   Mostly Cloudy
3:15 PM 75.2 °F 51.8 °F 44% 29.96 in 10.0 mi North - - N/A   Mostly Cloudy
3:35 PM 73.4 °F 51.8 °F 47% 29.95 in 10.0 mi North - - N/A   Mostly Cloudy
3:55 PM 73.4 °F 51.8 °F 47% 29.95 in 10.0 mi North - - N/A   Overcast
4:15 PM 73.4 °F 51.8 °F 47% 29.94 in 10.0 mi North - - N/A   Mostly Cloudy
4:35 PM 75.2 °F 50.0 °F 41% 29.94 in 10.0 mi North - - N/A   Mostly Cloudy
4:55 PM 75.2 °F 50.0 °F 41% 29.94 in 10.0 mi North - - N/A   Mostly Cloudy
5:15 PM 75.2 °F 53.6 °F 47% 29.94 in 10.0 mi North - - N/A   Mostly Cloudy
5:35 PM 73.4 °F 51.8 °F 47% 29.94 in 10.0 mi North - - N/A   Mostly Cloudy
5:55 PM 73.4 °F 53.6 °F 50% 29.94 in 10.0 mi North - - N/A   Mostly Cloudy
6:15 PM 73.4 °F 53.6 °F 50% 29.94 in 10.0 mi North - - N/A   Mostly Cloudy
6:35 PM 71.6 °F 55.4 °F 57% 29.94 in 10.0 mi North - - N/A   Mostly Cloudy
6:55 PM 69.8 °F 57.2 °F 64% 29.95 in 9.0 mi North - - N/A Rain Light Rain
7:15 PM 64.4 °F 60.8 °F 88% 29.96 in 1.5 mi North - - N/A Rain Light Rain
7:35 PM 64.4 °F 64.4 °F 100% 29.95 in 10.0 mi North - - N/A   Overcast
7:55 PM 64.4 °F 62.6 °F 94% 29.96 in 10.0 mi North - - N/A   Mostly Cloudy
8:15 PM 62.6 °F 62.6 °F 100% 29.96 in 5.0 mi North - - N/A   Partly Cloudy
8:35 PM 60.8 °F 60.8 °F 100% 29.97 in 5.0 mi North - - N/A   Scattered Clouds
8:55 PM 62.6 °F 62.6 °F 100% 29.98 in 10.0 mi North - - N/A   Mostly Cloudy
9:15 PM 62.6 °F 62.6 °F 100% 29.98 in 3.0 mi North - - N/A   Mostly Cloudy
9:35 PM 59.0 °F 59.0 °F 100% 29.98 in 4.0 mi North - - N/A   Mostly Cloudy
9:55 PM 60.8 °F 60.8 °F 100% 29.99 in 5.0 mi North - - N/A   Overcast
10:15 PM 60.8 °F 60.8 °F 100% 30.00 in 7.0 mi North - - N/A   Overcast
10:35 PM 62.6 °F 62.6 °F 100% 30.00 in 7.0 mi North - - N/A   Mostly Cloudy
10:55 PM 60.8 °F 60.8 °F 100% 30.00 in 10.0 mi North - - N/A   Mostly Cloudy
11:15 PM 60.8 °F 60.8 °F 100% 30.00 in 10.0 mi North - - N/A   Overcast
11:35 PM 59.0 °F 59.0 °F 100% 30.00 in 10.0 mi North - - N/A   Mostly Cloudy